Effective Sunday, March 17, 2024, the National Weather Service National Data Buoy Center will discontinue its Dial-A-Buoy Interactive Voice Response system. For more information, see Service Change Notice 24-06 (PDF).

Station SJNP4 - 9755371 - San Juan, La Puntilla, San Juan Bay, PR Image indicating link to RSS feed of recent meteorological observations for station SJNP4


Conditions at SJNP4 as of
(12:00 am AST)
0400 GMT on 03/01/2024:
     

Click on the graph icon in the table below to see a time series plot of the last five days of that observation.

5-day plot - Atmospheric Pressure Atmospheric Pressure (PRES):30.09 in
5-day plot - Pressure Tendency Pressure Tendency (PTDY):+0.00 in ( Steady )
5-day plot - Air Temperature Air Temperature (ATMP): 78.1 °F
5-day plot - Water Temperature Water Temperature (WTMP): 81.0 °F
NOS Water Level Observation Network Water Level
Previous observations
TIME
(AST)
5-day plot - Wind Direction
WDIR
 
5-day plot - Wind Speed
WSPD
kts
5-day plot - Wind Gust
GST
kts
5-day plot - Wave Height
WVHT
ft
5-day plot - Dominant Wave Period
DPD
sec
5-day plot - Average Wave Period
APD
sec
5-day plot - Mean Wave Direction
MWD
 
5-day plot - Atmospheric Pressure
PRES
in
5-day plot - Pressure Tendency
PTDY
in
5-day plot - Air Temperature
ATMP
°F
5-day plot - Water Temperature
WTMP
°F
5-day plot - Dew Point
DEWP
°F
5-day plot - Salinity
SAL
psu
5-day plot - Visibility
VIS
nmi
5-day plot - Tide (above MLLW)
TIDE
ft
2024-02-29 11:54 pm-------30.09- 78.1 81.0----
2024-02-29 11:48 pm-------30.09- 78.1 81.0----
2024-02-29 11:42 pm-------30.09- 78.1 81.0----
2024-02-29 11:36 pm-------30.09- 78.4 81.0----
2024-02-29 11:30 pm-------30.09- 78.1 81.0----
2024-02-29 11:24 pm-------30.09- 78.1 81.0----
2024-02-29 11:18 pm-------30.09- 78.1 81.0----
2024-02-29 11:12 pm-------30.09- 78.1 81.0----
2024-02-29 11:06 pm-------30.09- 78.1 81.0----
2024-02-29 11:00 pm-------30.09+0.02 78.3 80.8----
2024-02-29 10:54 pm-------30.09- 78.3 81.0----
2024-02-29 10:48 pm-------30.09- 78.3 81.0----
2024-02-29 10:42 pm-------30.09- 78.3 81.0----
2024-02-29 10:36 pm-------30.09- 78.3 81.0----
2024-02-29 10:30 pm-------30.09- 78.3 81.0----
2024-02-29 10:24 pm-------30.09- 78.1 81.0----
2024-02-29 10:18 pm-------30.09- 78.3 81.0----
2024-02-29 10:12 pm-------30.09- 78.3 81.1----
2024-02-29 10:06 pm-------30.09- 78.3 81.1----
2024-02-29 10:00 pm-------30.09+0.05 78.3 81.1----
2024-02-29 09:54 pm-------30.09- 78.3 81.1----
2024-02-29 09:48 pm-------30.09- 78.3 81.1----
2024-02-29 09:42 pm-------30.09- 78.3 81.1----
2024-02-29 09:36 pm-------30.09- 78.4 81.1----
2024-02-29 09:30 pm-------30.09- 78.3 81.0----
2024-02-29 09:24 pm-------30.09- 78.3 81.1----
2024-02-29 09:18 pm-------30.09- 78.3 81.1----
2024-02-29 09:12 pm-------30.08- 78.3 81.1----
2024-02-29 09:06 pm-------30.08- 78.1 81.1----
2024-02-29 09:00 pm-------30.08+0.05 78.4 81.1----
2024-02-29 08:54 pm-------30.08- 78.3 81.1----
2024-02-29 08:48 pm-------30.08- 78.6 81.1----
2024-02-29 08:42 pm-------30.08- 78.8 81.1----
2024-02-29 08:36 pm-------30.08- 78.8 81.1----
2024-02-29 08:30 pm-------30.07- 78.6 81.1----
2024-02-29 08:24 pm-------30.07- 78.8 81.3----
2024-02-29 08:18 pm-------30.07- 78.8 81.1----
2024-02-29 08:12 pm-------30.07- 78.8 81.1----
2024-02-29 08:06 pm-------30.06- 78.8 81.1----
2024-02-29 08:00 pm-------30.06+0.04 78.8 81.1----
2024-02-29 07:54 pm-------30.06- 78.8 81.1----
2024-02-29 07:48 pm-------30.06- 78.8 81.1----
2024-02-29 07:42 pm-------30.06- 78.8 81.3----
2024-02-29 07:36 pm-------30.05- 78.8 81.3----
2024-02-29 06:48 pm-------30.04- 78.8 81.5----
2024-02-29 06:42 pm-------30.03- 78.8 81.5----
2024-02-29 06:36 pm-------30.03- 79.0 81.5----
2024-02-29 06:30 pm-------30.03- 79.2 81.5----
2024-02-29 06:24 pm-------30.03- 79.3 81.5----
2024-02-29 06:18 pm-------30.03- 79.5 81.5----
2024-02-29 06:12 pm-------30.03- 79.3 81.5----
2024-02-29 06:06 pm-------30.03- 79.3 81.7----
2024-02-29 06:00 pm-------30.03-0.01 79.7 81.7----
2024-02-29 05:54 pm-------30.03- 79.5 81.5----
2024-02-29 05:48 pm-------30.03- 79.9 81.7----
2024-02-29 05:42 pm-------30.03- 79.9 81.7----
2024-02-29 05:36 pm-------30.03- 80.4 81.7----
2024-02-29 05:30 pm-------30.03- 80.2 81.7----
2024-02-29 05:24 pm-------30.03- 80.4 81.7----
2024-02-29 05:18 pm-------30.03- 80.4 81.7----
2024-02-29 05:12 pm-------30.03- 80.4 81.7----
2024-02-29 05:06 pm-------30.03- 80.4 81.1----
2024-02-29 05:00 pm-------30.03-0.02 81.1 81.5----
2024-02-29 04:54 pm-------30.03- 80.8 81.5----
2024-02-29 04:48 pm-------30.03- 80.6 81.1----
2024-02-29 04:42 pm-------30.03- 80.8 81.3----
2024-02-29 04:36 pm-------30.03- 81.0 81.3----
2024-02-29 04:30 pm-------30.03- 80.8 81.7----
2024-02-29 04:24 pm-------30.03- 81.0 81.5----
2024-02-29 04:18 pm-------30.04- 80.4 81.7----
2024-02-29 04:12 pm-------30.03- 80.8 81.3----
2024-02-29 04:06 pm-------30.03- 81.0 81.7----
2024-02-29 04:00 pm-------30.03-0.04 81.5 81.3----
2024-02-29 03:54 pm-------30.03- 81.5 81.3----
2024-02-29 03:48 pm-------30.03- 81.0 81.3----
2024-02-29 03:42 pm-------30.03- 81.3 81.7----
2024-02-29 03:36 pm-------30.03- 81.1 81.5----
2024-02-29 03:30 pm-------30.03- 81.3 81.7----
2024-02-29 03:24 pm-------30.03- 81.5 81.5----
2024-02-29 03:18 pm-------30.03- 81.7 81.7----
2024-02-29 03:12 pm-------30.03- 81.7 81.7----
2024-02-29 03:06 pm-------30.03- 82.2 81.7----
2024-02-29 03:00 pm-------30.04-0.05 81.5 81.7----
2024-02-29 02:54 pm-------30.04- 81.9 81.5----
2024-02-29 02:48 pm-------30.04- 81.7 81.7----
2024-02-29 02:42 pm-------30.04- 82.2 81.3----
2024-02-29 02:36 pm-------30.04- 82.4 81.5----
2024-02-29 02:30 pm-------30.04- 81.5 81.5----
2024-02-29 02:24 pm-------30.05- 81.7 81.5----
2024-02-29 02:18 pm-------30.05- 81.9 81.3----
2024-02-29 02:12 pm-------30.05- 82.0 81.3----
2024-02-29 02:06 pm-------30.05- 82.0 81.3----
2024-02-29 02:00 pm-------30.05-0.05 81.1 81.5----
2024-02-29 01:54 pm-------30.06- 81.3 81.5----
2024-02-29 01:48 pm-------30.06- 82.4 81.3----
2024-02-29 01:42 pm-------30.06- 81.0 81.3----
2024-02-29 01:36 pm-------30.06- 81.3 81.3----
2024-02-29 01:30 pm-------30.06- 81.9 81.3----
2024-02-29 01:24 pm-------30.06- 81.1 81.3----
2024-02-29 01:18 pm-------30.06- 81.1 81.3----
2024-02-29 01:12 pm-------30.07- 81.7 81.3----
2024-02-29 01:06 pm-------30.07- 81.0 81.3----
2024-02-29 01:00 pm-------30.07-0.03 81.0 81.3----
2024-02-29 12:54 pm-------30.07- 80.8 81.3----
2024-02-29 12:48 pm-------30.07- 81.0 81.3----
2024-02-29 12:42 pm-------30.07- 81.1 81.1----
2024-02-29 12:36 pm-------30.08- 80.8 81.1----
2024-02-29 12:30 pm-------30.08- 81.1 81.0----
2024-02-29 12:24 pm-------30.08- 81.7 81.0----
2024-02-29 12:18 pm-------30.08- 80.8 81.0----
2024-02-29 12:12 pm-------30.08- 81.5 81.1----
2024-02-29 12:06 pm-------30.09- 80.8 81.0----
2024-02-29 12:00 pm-------30.09-0.01 80.8 81.0----
2024-02-29 11:54 am-------30.09- 80.4 81.0----
2024-02-29 11:48 am-------30.09- 80.6 81.0----
2024-02-29 11:42 am-------30.09- 80.6 81.0----
2024-02-29 11:36 am-------30.09- 81.1 81.0----
2024-02-29 11:30 am-------30.09- 80.8 80.8----
2024-02-29 11:24 am-------30.09- 80.2 81.0----
2024-02-29 11:18 am-------30.10- 80.4 81.0----
2024-02-29 11:12 am-------30.10- 80.8 80.8----
2024-02-29 11:06 am-------30.10- 80.6 80.8----
2024-02-29 11:00 am-------30.10+0.04 80.8 80.8----
2024-02-29 10:54 am-------30.10- 80.8 80.8----
2024-02-29 10:48 am-------30.10- 80.2 80.8----
2024-02-29 10:42 am-------30.10- 80.4 80.8----
2024-02-29 10:36 am-------30.10- 80.8 80.8----
2024-02-29 10:30 am-------30.10- 80.2 80.8----
2024-02-29 10:24 am-------30.10- 80.4 80.8----
2024-02-29 10:18 am-------30.10- 80.6 80.8----
2024-02-29 10:12 am-------30.10- 79.9 80.8----
2024-02-29 10:06 am-------30.10- 80.1 81.0----
2024-02-29 10:00 am-------30.10+0.05 80.2 80.8----
2024-02-29 09:54 am-------30.10- 79.7 80.8----
2024-02-29 09:48 am-------30.10- 80.1 80.8----
2024-02-29 09:42 am-------30.10- 80.1 80.8----
2024-02-29 09:36 am-------30.10- 79.5 80.8----
2024-02-29 09:30 am-------30.10- 79.7 80.8----
2024-02-29 09:24 am-------30.10- 80.2 80.8----
2024-02-29 09:18 am-------30.10- 79.9 80.8----
2024-02-29 09:12 am-------30.10- 79.9 80.8----
2024-02-29 09:06 am-------30.09- 79.5 80.8----
2024-02-29 09:00 am-------30.09+0.06 79.7 80.8----
2024-02-29 08:54 am-------30.09- 80.1 80.8----
2024-02-29 08:48 am-------30.09- 79.9 80.8----
2024-02-29 08:42 am-------30.09- 79.5 80.8----
2024-02-29 08:36 am-------30.08- 79.5 80.8----
2024-02-29 08:30 am-------30.08- 79.9 80.6----
2024-02-29 08:24 am-------30.08- 79.5 80.6----
2024-02-29 08:18 am-------30.07- 79.5 80.6----
2024-02-29 08:12 am-------30.07- 79.9 80.6----
2024-02-29 08:06 am-------30.07- 79.5 80.6----
2024-02-29 08:00 am-------30.07+0.05 79.5 80.6----
2024-02-29 07:54 am-------30.06- 79.7 80.4----
2024-02-29 07:48 am-------30.06- 79.5 80.4----
2024-02-29 07:42 am-------30.06- 79.0 80.4----
2024-02-29 07:36 am-------30.06- 78.6 80.6----
2024-02-29 07:30 am-------30.06- 78.6 80.4----
2024-02-29 07:24 am-------30.06- 78.4 80.2----
2024-02-29 07:18 am-------30.06- 78.3 80.4----
2024-02-29 07:12 am-------30.06- 78.4 80.4----
2024-02-29 07:06 am-------30.06- 78.3 80.4----
2024-02-29 07:00 am-------30.06+0.04- 80.4----
2024-02-29 06:54 am-------30.06-- 80.4----
2024-02-29 06:48 am-------30.05- 78.1 80.6----
2024-02-29 06:42 am-------30.05- 78.3 80.6----
2024-02-29 06:36 am-------30.05- 78.4 80.6----
2024-02-29 06:30 am-------30.04- 78.3 80.6----
2024-02-29 06:24 am-------30.04- 78.3 80.6----
2024-02-29 06:18 am-------30.04- 78.3 80.6----
2024-02-29 06:12 am-------30.04- 78.1 80.6----
2024-02-29 06:06 am-------30.04- 78.3 80.4----
2024-02-29 06:00 am-------30.04+0.01 78.3 80.4----
2024-02-29 05:54 am-------30.03- 78.3 80.6----
2024-02-29 05:48 am-------30.03- 78.3 80.6----
2024-02-29 05:42 am-------30.03- 78.3 80.4----
2024-02-29 05:36 am-------30.03- 78.1 80.6----
2024-02-29 05:30 am-------30.03- 78.3 80.6----
2024-02-29 05:24 am-------30.03- 78.1 80.6----
2024-02-29 05:18 am-------30.03- 78.3 80.6----
2024-02-29 05:12 am-------30.03- 78.1 80.6----
2024-02-29 05:06 am-------30.02- 78.1 80.6----
2024-02-29 05:00 am-------30.02-0.02 78.1 80.6----
2024-02-29 04:54 am-------30.02- 78.1 80.6----
2024-02-29 04:48 am-------30.02- 78.1 80.6----
2024-02-29 04:42 am-------30.02- 78.3 80.6----
2024-02-29 04:36 am-------30.01- 78.1 80.8----
2024-02-29 04:30 am-------30.01- 78.3 80.8----
2024-02-29 04:24 am-------30.01- 78.3 80.8----
2024-02-29 04:18 am-------30.01- 78.3 80.8----
2024-02-29 04:12 am-------30.01- 78.3 80.8----
2024-02-29 04:06 am-------30.01- 78.1 80.8----
2024-02-29 04:00 am-------30.01-0.04 78.3 80.8----
2024-02-29 03:54 am-------30.02- 78.3 80.8----
2024-02-29 03:48 am-------30.02- 78.4 80.8----
2024-02-29 03:42 am-------30.02- 78.3 80.8----
2024-02-29 03:36 am-------30.02- 78.4 80.8----
2024-02-29 03:30 am-------30.02- 78.4 80.8----
2024-02-29 03:24 am-------30.02- 78.4 80.6----
2024-02-29 03:18 am-------30.03- 78.3 80.8----
2024-02-29 03:12 am-------30.03- 78.3 80.8----
2024-02-29 03:06 am-------30.03- 78.4 80.8----
2024-02-29 03:00 am-------30.03-0.04 78.4 80.8----
2024-02-29 02:54 am-------30.03- 78.4 80.8----
2024-02-29 02:48 am-------30.03- 78.3 81.0----
2024-02-29 02:42 am-------30.03- 78.3 81.0----
2024-02-29 02:36 am-------30.03- 78.4 81.0----
2024-02-29 02:30 am-------30.03- 78.6 81.0----
2024-02-29 02:24 am-------30.03- 78.4 81.0----
2024-02-29 02:18 am-------30.03- 78.6 81.0----
2024-02-29 02:12 am-------30.03- 78.6 81.0----
2024-02-29 02:06 am-------30.03- 78.6 81.0----
2024-02-29 02:00 am-------30.04-0.02 78.4 81.0----
2024-02-29 01:54 am-------30.04- 78.4 81.0----
2024-02-29 01:48 am-------30.04- 78.6 81.0----
2024-02-29 01:42 am-------30.05- 78.6 81.0----
2024-02-29 01:36 am-------30.05- 78.6 80.8----
2024-02-29 01:30 am-------30.05- 78.6 80.8----
2024-02-29 01:24 am-------30.05- 78.8 81.0----
2024-02-29 01:18 am-------30.06- 78.8 81.0----
2024-02-29 01:12 am-------30.06- 78.8 81.0----
2024-02-29 01:06 am-------30.06- 78.8 81.0----
2024-02-29 01:00 am-------30.06+0.00 78.6 80.8----
2024-02-29 12:54 am-------30.06- 78.8 80.8----
2024-02-29 12:48 am-------30.06- 78.8 80.8----
2024-02-29 12:42 am-------30.06- 78.8 80.8----
2024-02-29 12:36 am-------30.06- 79.0 81.0----
2024-02-29 12:30 am-------30.06- 78.8 81.0----
2024-02-29 12:24 am-------30.06- 78.8 81.0----
2024-02-29 12:18 am-------30.06- 78.8 81.0----
2024-02-29 12:12 am-------30.06- 79.0 81.0----
2024-02-29 12:06 am-------30.06- 78.8 81.0----
2024-02-29 12:00 am-------30.06+0.02 78.8 81.0----
2024-02-28 11:54 pm-------30.06- 78.8 81.0----